Regional Weather Roundup
Issued by NWS

Home | Current Version | Previous Version | Graphics & Text | Print | Product List | Glossary On
Versions: 1 2 3 4 5 6 7 8 9 10 11 12 13 14 15 16 17 18 19 20 21 22 23 24 25 26 27 28 29 30 31 32 33 34 35 36 37 38 39 40 41 42 43 44 45 46 47 48 49 50
000
ASUS45 KABQ 292110
RWRNM
NEW MEXICO REGIONAL WEATHER ROUNDUP
NATIONAL WEATHER SERVICE ALBUQUERQUE NM
300 PM MDT THU SEP 29 2016

NOTE: "FAIR" MEANS FEW OR NO CLOUDS BELOW 12,000 FEET AGL WITH NO
       SIGNIFICANT WEATHER OR OBSTRUCTIONS TO VISION.

      THIS PRODUCT IS RELEASED AS TWO VERSIONS.  ONE VERSION NEAR
      THE TOP OF THE HOUR CONTAINING PRELIMINARY DATA FROM ALBUQUERQUE
      AND OTHER STATIONS.  A FINAL VERSION WITH ADDITIONAL DATA IS
      ISSUED ABOUT 10 MINUTES AFTER THE HOUR.

NMZ501-503-504-510>518-292200-
NORTHWEST PLATEAU/NORTHCENTRAL MOUNTAINS

CITY           SKY/WX    TMP DP  RH WIND       PRES   REMARKS
FARMINGTON     LGT RAIN  57  53  86 E6        30.43F
LOS ALAMOS     FAIR      72  34  24 SE8       30.46F
SANTA FE       FAIR      76  36  23 SE15G26   30.41F
TAOS           FAIR      72  34  25 SW5G16    30.46F

$$
NMZ402-403-502-505>509-292200-
WESTCENTRAL MOUNTAINS/SOUTHWEST MOUNTAINS

CITY           SKY/WX    TMP DP  RH WIND       PRES   REMARKS
GALLUP         PTSUNNY   58  52  80 NE6       30.45F
SILVER CITY    CLOUDY    76  54  46 SE15      30.33F

$$
NMZ407-409-411-412-292200-
SOUTHERN DESERTS

CITY           SKY/WX    TMP DP  RH WIND       PRES   REMARKS
DEMING         FAIR      82  56  40 SE17G23   30.25F
LAS CRUCES     FAIR      83  46  27 SE10G18   30.29F
HOLLOMAN AFB   FAIR      85  41  21 S16G22    30.24F
ALAMOGORDO     FAIR      84  41  21 SE7       30.27F
T OR C         PTSUNNY   81  52  36 SE13G20   30.28F

$$
NMZ519>523-292200-
CENTRAL VALLEYS/CENTRAL HIGHLANDS

CITY           SKY/WX    TMP DP  RH WIND       PRES   REMARKS
ALBUQUERQUE    PTSUNNY   80  43  26 W10       30.33F
DOUBLE EAGLE   PTSUNNY   81  45  28 SE9       30.37F
MORIARTY ARPT  FAIR      76  33  21 SE13G18   30.42F
CLINES CORNERS FAIR      71  37  28 SE9G23    30.48F
BELEN          FAIR      83  36  19 E9        30.30F
SOCORRO        FAIR      81  42  24 SE7       30.29F

$$
NMZ524>526-539-540-292200-
SOUTHCENTRAL MOUNTAINS

CITY           SKY/WX    TMP DP  RH WIND       PRES   REMARKS
RUIDOSO        FAIR      66  39  37 SE17      30.48S

$$
NMZ527>531-292200-
NORTHEAST HIGHLANDS/NORTHEAST PLAINS

CITY           SKY/WX    TMP DP  RH WIND       PRES   REMARKS
LAS VEGAS      FAIR      72  37  28 S12G22    30.47F
RATON          FAIR      73  34  23 S15G26    30.41F
CLAYTON        FAIR      74  45  35 SW10      30.37F

$$
NMZ532>537-292200-
EASTCENTRAL PLAINS

CITY           SKY/WX    TMP DP  RH WIND       PRES   REMARKS
TUCUMCARI      FAIR      84  38  19 SE7       30.32F
CANNON AFB     NOT AVBL
CLOVIS AIRPORT FAIR      75  48  38 S9        30.37F

$$
NMZ028-029-538-292200-
SOUTHEAST PLAINS

CITY           SKY/WX    TMP DP  RH WIND       PRES   REMARKS
ROSWELL        FAIR      79  41  25 S7        30.32F
ARTESIA        FAIR      77  48  36 S5G12     30.32F
CARLSBAD       FAIR      78  48  34 S8        30.29F


$$




USA.gov is the U.S. government's official web portal to all federal, state and local government web resources and services.